This demonstration page uses our WeatherBlox Daily Observations layout. Learn more.

Left ArrowRight Arrow

Hourly Observations for January 24, 2022

Temp ( °F °C ) Dew Point ( °F °C ) Humidity (%) Winds ( mph kmh ) Pressure ( in mb ) Visibility ( mi km ) Precip ( " mm )
12:53 am 00:53 Mostly Clear 46 7.8 35 1.7 66 66 Calm 30.00 1016 10 16 0.00 0.00
1:53 am 01:53 Mostly Clear 43 6.1 34 1.1 71 71 Calm 29.98 1015 10 16 0.00 0.00
2:53 am 02:53 Partly Cloudy 44 6.7 34 1.1 68 68 Calm 29.98 1015 10 16 0.00 0.00
3:53 am 03:53 Mostly Cloudy 47 8.3 36 2.2 66 66 SW 3 6 29.96 1015 10 16 0.00 0.00
4:53 am 04:53 Cloudy 46 7.8 35 1.7 66 66 Calm 29.93 1014 10 16 0.00 0.00
5:53 am 05:53 Cloudy 47 8.3 36 2.2 66 66 Calm 29.93 1014 10 16 0.00 0.00
6:53 am 06:53 Mostly Cloudy 49 9.4 37 2.8 64 64 SW 3 6 29.93 1014 10 16 0.00 0.00
7:53 am 07:53 Mostly Cloudy 48 8.9 37 2.8 66 66 SW 3 6 29.94 1014 10 16 0.00 0.00
8:53 am 08:53 Mostly Cloudy 50 10 38 3.3 63 63 W 3 6 29.94 1014 9 14 0.00 0.00
9:53 am 09:53 Mostly Cloudy 52 11.1 39 3.9 61 61 SW 6 9 29.94 1014 10 16 0.00 0.00
10:53 am 10:53 Cloudy 53 11.7 39 3.9 59 59 WSW 6 9 29.93 1014 10 16 0.00 0.00
11:53 am 11:53 Cloudy 54 12.2 39 3.9 57 57 SSW 6 9 29.91 1013 10 16 0.00 0.00
12:53 pm 12:53 Mostly Cloudy 56 13.3 38 3.3 51 51 SW 8 13 29.88 1012 10 16 0.00 0.00
1:53 pm 13:53 Cloudy with Light Rain 55 12.8 40 4.4 57 57 SW 8 13 29.86 1011 10 16 0.00 0.00
2:53 pm 14:53 Cloudy with Light Rain 51 10.6 45 7.2 80 80 S 8 13 29.82 1010 9 14 0.01 0.25
3:48 pm 15:48 Cloudy 52 11 46 8 82 82 SSW 6 9 29.85 1011 10 16 0.01 0.25
3:53 pm 15:53 Cloudy 51 10.6 46 7.8 83 83 SSW 6 9 29.83 1010 10 16 0.01 0.25
4:53 pm 16:53 Cloudy 51 10.6 46 7.8 83 83 S 8 13 29.84 1010 10 16 0.00 0.00
5:16 pm 17:16 Cloudy 50 10 46 7.8 86 86 S 5 7 29.86 1011 10 16 0.00 0.00
5:53 pm 17:53 Cloudy 50 10 46 7.8 86 86 S 6 9 29.85 1011 10 16 0.00 0.00
6:33 pm 18:33 Cloudy with Light Rain 50 10 46 7.8 86 86 SW 7 11 29.89 1012 8 13 0.00 0.00
6:53 pm 18:53 Cloudy with Light Rain 49 9.4 44 6.7 83 83 SW 6 9 29.88 1012 10 16 0.02 0.51
7:53 pm 19:53 Cloudy with Light Rain 48 8.9 45 7.2 89 89 Calm 29.90 1013 10 16 0.02 0.51
8:53 pm 20:53 Mostly Cloudy with Light Rain 48 8.9 46 7.8 93 93 Calm 29.90 1013 10 16 0.00 0.00
9:53 pm 21:53 Partly Cloudy 48 8.9 45 7.2 89 89 Calm 29.90 1013 7 11 0.00 0.00
10:30 pm 22:30 Mostly Clear with Mist and Fog 46 7.8 44 6.7 93 93 Calm 29.93 1014 6 10 0.00 0.00
10:53 pm 22:53 Mostly Cloudy with Mist and Fog 45 7.2 43 6.1 93 93 Calm 29.91 1013 5 8 0.00 0.00
11:29 pm 23:29 Cloudy with Mist and Fog 48 8.9 47 8.3 96 96 Calm 29.93 1014 3 5 0.00 0.00
11:53 pm 23:53 Cloudy with Mist and Fog 48 8.9 47 8.3 96 96 Calm 29.92 1013 3 5 0.00 0.00

Powered by AerisWeather